DW8248 Weather Reports


Display with metric or nautical units.
time (UTC)temp
F
wind
direction
speed
MPH
gust
MPH
rain 1hr
in
rain 24hr
in
rain mn
in
humidity
%
barometer
mb
20260510181105 90 78 1.0 7.0 0.00 0.12 0.00 60 1015.2
20260510180049 90 296 5.0 10.0 0.00 0.12 0.00 56 1015.3
20260510173946 89 254 7.0 12.0 0.00 0.12 0.00 57 1015.4
20260510172933 89 273 8.0 12.0 0.00 0.12 0.00 60 1015.5
20260510171858 89 288 2.0 9.0 0.00 0.12 0.00 58 1015.6
20260510170914 89 223 0.0 0.0 0.00 0.12 0.00 60 1015.7
20260510165912 88 229 3.0 6.0 0.00 0.12 0.00 62 1015.9
20260510164902 88 169 4.0 9.0 0.00 0.12 0.00 62 1015.9
20260510163915 87 209 4.0 9.0 0.00 0.12 0.00 60 1015.9
20260510162858 87 192 5.0 8.0 0.00 0.12 0.00 63 1016.0
20260510161830 87 222 5.0 10.0 0.00 0.12 0.00 60 1016.1
20260510160827 86 207 6.0 10.0 0.00 0.12 0.00 65 1016.2
20260510155812 86 196 7.0 11.0 0.00 0.12 0.00 60 1016.3
20260510154759 86 188 8.0 11.0 0.00 0.12 0.00 63 1016.3
20260510153733 86 186 9.0 12.0 0.00 0.12 0.00 62 1016.3
20260510152734 85 202 9.0 13.0 0.00 0.12 0.00 62 1016.4
20260510151719 86 205 8.0 13.0 0.00 0.12 0.00 60 1016.3
20260510150652 85 227 8.0 11.0 0.00 0.12 0.00 64 1016.4
20260510144449 84 194 6.0 11.0 0.00 0.12 0.00 67 1016.3
20260510143424 84 216 5.0 9.0 0.00 0.12 0.00 70 1016.3
20260510142353 83 232 4.0 7.0 0.00 0.12 0.00 70 1016.2
20260510135031 81 237 3.0 6.0 0.00 0.12 0.00 79 1016.1
20260510134028 80 211 5.0 7.0 0.00 0.12 0.00 82 1016.2
20260510132953 79 215 5.0 7.0 0.00 0.12 0.00 83 1016.1
20260510131924 79 220 4.0 5.0 0.00 0.12 0.00 84 1016.1
20260510125757 78 187 4.0 6.0 0.00 0.12 0.00 86 1015.8
20260510124805 78 215 5.0 6.0 0.00 0.12 0.00 86 1015.9
20260510123827 78 220 4.0 6.0 0.00 0.12 0.00 87 1015.8
20260510122828 78 214 3.0 6.0 0.00 0.12 0.00 87 1015.5
20260510121818 78 214 5.0 6.0 0.00 0.12 0.00 87 1015.4
20260510120816 77 195 4.0 6.0 0.00 0.12 0.00 87 1015.2
20260510115806 77 224 4.0 8.0 0.00 0.12 0.00 87 1015.2
20260510114825 77 218 6.0 9.0 0.00 0.12 0.00 87 1015.1
20260510113830 77 206 7.0 9.0 0.00 0.12 0.00 87 1014.7
20260510112759 77 208 6.0 8.0 0.00 0.12 0.00 87 1014.4
20260510111821 77 207 5.0 7.0 0.00 0.12 0.00 87 1014.3
20260510110819 77 219 5.0 8.0 0.00 0.12 0.00 87 1014.2
20260510105831 77 233 7.0 9.0 0.00 0.12 0.00 87 1014.2
20260510104756 77 219 7.0 9.0 0.00 0.12 0.00 87 1014.0
20260510103757 77 215 5.0 7.0 0.00 0.12 0.00 86 1013.9
20260510102748 77 219 5.0 6.0 0.00 0.12 0.00 86 1013.8
20260510101759 78 227 5.0 6.0 0.00 0.12 0.00 86 1013.8
20260510100729 78 217 4.0 5.0 0.00 0.12 0.00 86 1013.5
20260510095749 79 239 3.0 4.0 0.00 0.12 0.00 86 1013.5
20260510094734 79 246 2.0 3.0 0.00 0.12 0.00 86 1013.4
20260510093749 79 271 0.0 3.0 0.00 0.12 0.00 86 1013.3
20260510092717 78 194 0.0 0.0 0.00 0.12 0.00 86 1013.2
20260510091656 78 105 0.0 0.0 0.00 0.12 0.00 86 1013.1
20260510090713 78 105 0.0 0.0 0.00 0.12 0.00 86 1013.1
20260510085718 78 105 0.0 0.0 0.00 0.12 0.00 86 1013.0
20260510084718 78 105 0.0 0.0 0.00 0.12 0.00 86 1013.0
20260510083733 78 34 0.0 0.0 0.00 0.12 0.00 86 1013.0
20260510082719 78 34 0.0 0.0 0.00 0.12 0.00 86 1013.0
20260510081741 78 34 0.0 0.0 0.00 0.12 0.00 86 1013.1
20260510080730 78 34 0.0 0.0 0.00 0.12 0.00 86 1013.1
20260510074542 78 34 0.0 0.0 0.00 0.12 0.00 85 1013.2
20260510071336 79 17 1.0 3.0 0.00 0.12 0.00 85 1013.2
20260510065208 79 5 2.0 5.0 0.00 0.12 0.00 85 1013.3
20260510064153 79 30 2.0 4.0 0.00 0.12 0.00 85 1013.4
20260510063215 79 342 1.0 4.0 0.00 0.12 0.00 85 1013.5
20260510062226 79 20 2.0 4.0 0.00 0.12 0.00 85 1013.6
20260510061213 79 11 2.0 4.0 0.00 0.12 0.00 85 1013.8
20260510060232 79 350 2.0 4.0 0.00 0.12 0.00 85 1013.7
20260510055219 78 19 2.0 7.0 0.00 0.12 0.00 85 1013.8
20260510054231 78 18 3.0 7.0 0.00 0.12 0.00 85 1013.9
20260510053212 78 16 3.0 8.0 0.00 0.12 0.00 85 1013.9
20260510052214 78 5 3.0 8.0 0.00 0.12 0.00 85 1013.8
20260510051208 78 26 4.0 8.0 0.00 0.12 0.00 85 1013.9
20260510050221 79 343 4.0 9.0 0.00 0.12 0.00 85 1014.0
20260510045237 79 347 5.0 10.0 0.00 0.12 0.00 85 1013.9
20260510043123 79 346 4.0 8.0 0.00 0.12 0.00 84 1014.0
20260510042103 79 344 4.0 8.0 0.00 0.12 0.00 84 1014.2
20260510041055 78 332 3.0 7.0 0.00 0.12 0.00 84 1014.1
20260510040106 78 31 4.0 10.0 0.00 0.12 0.00 84 1014.2
20260510035123 78 10 4.0 11.0 0.00 0.12 0.12 84 1014.1
20260510034139 78 38 5.0 11.0 0.00 0.12 0.12 84 1014.0
20260510033113 79 348 6.0 11.0 0.00 0.12 0.12 84 1014.1
20260510032039 79 18 8.0 13.0 0.00 0.12 0.12 83 1014.0
20260510031024 80 335 9.0 13.0 0.00 0.12 0.12 83 1013.8
20260510024834 80 297 8.0 9.0 0.00 0.12 0.12 80 1014.1
20260510023833 80 322 7.0 9.0 0.00 0.12 0.12 78 1014.1
20260510022804 80 303 7.0 8.0 0.00 0.12 0.12 78 1014.2
20260510021749 80 294 6.0 9.0 0.00 0.12 0.12 79 1014.0
20260510020716 80 261 9.0 11.0 0.00 0.12 0.12 80 1014.0
20260510015650 80 225 11.0 16.0 0.00 0.12 0.12 80 1013.8
20260510014627 81 199 2.0 16.0 0.00 0.12 0.12 80 1013.7
20260510013601 79 333 2.0 7.0 0.00 0.12 0.12 80 1013.0
20260510012612 79 346 2.0 7.0 0.00 0.12 0.12 80 1012.8
20260510011632 79 339 3.0 5.0 0.00 0.12 0.12 81 1012.6
20260510010613 79 326 2.0 9.0 0.00 0.12 0.12 80 1012.5
20260510005546 79 340 7.0 14.0 0.00 0.12 0.12 80 1012.3
20260510004518 80 323 10.0 16.0 0.05 0.12 0.12 81 1012.2
20260510003521 80 309 12.0 16.0 0.25 0.12 0.12 80 1012.3
20260510002508 81 296 10.0 15.0 0.00 0.09 0.09 78 1012.5
20260510001459 80 317 7.0 15.0 0.05 0.09 0.09 81 1012.3
20260510000428 79 46 4.0 29.0 0.05 0.08 0.08 82 1012.1
20260509235445 80 355 14.0 29.0 0.49 0.08 0.08 79 1011.8
20260509233259 83 158 12.0 21.0 0.00 0.00 0.00 80 1010.5
20260509232316 83 141 13.0 23.0 0.00 0.00 0.00 80 1010.5
20260509231253 83 132 13.0 23.0 0.00 0.00 0.00 80 1010.3
20260509230257 83 138 12.0 18.0 0.00 0.00 0.00 80 1010.3
20260509225244 83 138 11.0 19.0 0.00 0.00 0.00 81 1010.5
20260509224236 83 146 10.0 19.0 0.00 0.00 0.00 80 1010.5
20260509222103 83 151 10.0 16.0 0.00 0.00 0.00 80 1010.4
20260509221108 84 144 11.0 21.0 0.00 0.00 0.00 79 1010.5
20260509214948 84 150 12.0 20.0 0.00 0.00 0.00 78 1010.4
20260509211702 84 163 13.0 22.0 0.00 0.00 0.00 76 1010.4
20260509210657 84 137 12.0 20.0 0.00 0.00 0.00 76 1010.6
20260509204457 84 119 13.0 21.0 0.00 0.00 0.00 75 1010.5
20260509203510 85 121 13.0 21.0 0.00 0.00 0.00 73 1010.6
20260509202508 84 125 13.0 22.0 0.00 0.00 0.00 74 1010.6
20260509201528 84 122 12.0 24.0 0.00 0.00 0.00 74 1010.6
20260509200531 84 117 12.0 24.0 0.00 0.00 0.00 76 1010.7
20260509195514 84 124 10.0 18.0 0.00 0.00 0.00 75 1010.9
20260509194530 85 123 8.0 16.0 0.00 0.00 0.00 74 1011.1
20260509193550 84 161 10.0 18.0 0.00 0.00 0.00 75 1011.2
20260509191356 86 136 8.0 16.0 0.00 0.00 0.00 72 1011.4
20260509190328 86 139 8.0 16.0 0.00 0.00 0.00 69 1011.4
20260509184125 90 194 9.0 14.0 0.00 0.00 0.00 50 1011.8